Location: Boiro
(42.6475°N, 8.8834°W)
Time: 00:49:48
(UTC+01:00)

Vanguard 3 - All Passes

Search period start: 30 November 2021 00:00
Search period end: 10 December 2021 00:00
Orbit: 509 x 3260 km, 33.3° (Epoch: 29 November)

Date Brightness Start Highest point End Pass type
(mag) Time Alt. Az. Time Alt. Az. Time Alt. Az.
30 Nov - 03:39:45 10° S 03:53:29 24° SE 04:06:00 10° E visible
30 Nov - 05:49:57 10° SW 06:07:58 46° SSE 06:21:26 10° E visible
30 Nov - 08:05:09 10° WSW 08:22:44 58° S 08:33:38 10° ESE visible
30 Nov - 10:22:23 10° W 10:36:05 46° SSW 10:44:08 10° SE daylight
30 Nov - 12:40:47 10° W 12:46:58 18° SW 12:51:32 10° S daylight
01 Dec - 02:29:06 10° SSE 02:37:44 15° SE 02:46:17 10° ESE visible
01 Dec - 04:34:38 10° SSW 04:51:34 37° SSE 05:05:57 10° E visible
01 Dec - 06:47:55 10° WSW 07:06:33 55° S 07:19:24 10° E visible
01 Dec - 09:04:29 10° W 09:20:59 56° S 09:30:49 10° ESE daylight
01 Dec - 11:22:14 10° W 11:33:14 32° SW 11:40:09 10° SSE daylight
02 Dec - 03:20:48 10° S 03:35:23 27° SE 03:49:14 10° E visible
02 Dec - 05:31:29 10° SW 05:50:02 49° SSE 06:04:33 10° E visible
02 Dec - 07:46:47 10° WSW 08:05:09 60° S 08:16:59 10° ESE visible
02 Dec - 10:04:09 10° W 10:18:46 46° SSW 10:27:33 10° SE daylight
02 Dec - 12:23:11 10° W 12:29:42 17° SW 12:34:37 10° S daylight
03 Dec - 02:09:18 10° SSE 02:19:38 17° SE 02:30:11 10° E visible
03 Dec - 04:16:09 10° SSW 04:33:28 41° SSE 04:48:55 10° E visible
03 Dec - 06:29:35 10° WSW 06:48:44 58° S 07:02:34 10° E visible
03 Dec - 08:46:10 10° W 09:03:29 56° SSW 09:14:11 10° ESE daylight
03 Dec - 11:04:10 10° W 11:15:54 31° SW 11:23:26 10° SSE daylight
04 Dec - 03:02:11 10° SSW 03:17:11 31° SE 03:32:10 10° E visible
04 Dec - 05:13:12 10° SW 05:31:59 53° SSE 05:47:32 10° E visible
04 Dec - 07:28:29 10° WSW 07:47:26 61° S 08:00:12 10° ESE visible
04 Dec - 09:45:53 10° W 10:01:18 45° SSW 10:10:50 10° SE daylight
04 Dec - 12:05:32 10° W 12:12:20 16° SW 12:17:32 10° SSW daylight
05 Dec - 01:50:12 10° S 02:01:28 20° SE 02:13:29 10° E visible
05 Dec - 03:57:54 10° SW 04:15:16 44° SSE 04:31:43 10° E visible
05 Dec - 06:11:22 10° WSW 06:30:47 60° S 06:45:37 10° E visible
05 Dec - 08:27:52 10° W 08:45:51 56° SSW 08:57:26 10° ESE daylight
05 Dec - 10:46:04 10° W 10:58:25 30° SW 11:06:35 10° SSE daylight
06 Dec - 02:43:53 10° SSW 02:58:58 34° SE 03:14:53 10° E visible
06 Dec - 04:55:06 10° SW 05:13:51 56° SSE 05:30:22 10° E visible
06 Dec - 07:10:16 10° WSW 07:29:36 62° S 07:43:19 10° ESE visible
06 Dec - 09:27:36 10° W 09:43:42 44° SSW 09:54:02 10° SE daylight
06 Dec - 11:47:54 10° W 11:54:49 16° SW 12:00:14 10° SSW daylight
07 Dec - 01:31:36 10° S 01:43:16 22° SE 01:56:21 10° E visible
07 Dec - 03:39:53 10° SW 03:57:02 47° SSE 04:14:20 10° E visible
07 Dec - 05:53:18 10° WSW 06:12:45 62° S 06:28:32 10° E visible
07 Dec - 08:09:37 10° W 08:28:05 55° SSW 08:40:33 10° SE visible
07 Dec - 10:27:56 10° W 10:40:48 29° SW 10:49:35 10° SSE daylight
08 Dec - 00:23:38 10° SE 00:28:18 12° SE 00:33:17 10° ESE visible
08 Dec - 02:25:51 10° SSW 02:40:41 36° SE 02:57:21 10° E visible
08 Dec - 04:37:11 10° WSW 04:55:40 58° SSE 05:13:03 10° E visible
08 Dec - 06:52:09 10° W 07:11:38 62° S 07:26:18 10° ESE visible
08 Dec - 09:09:21 10° W 09:25:57 43° SSW 09:37:05 10° SE daylight
08 Dec - 11:30:22 10° W 11:37:11 15° SW 11:42:42 10° SSW daylight
09 Dec - 01:13:21 10° S 01:25:04 25° SE 01:38:54 10° E visible
09 Dec - 03:22:03 10° SW 03:38:46 50° SSE 03:56:48 10° E visible
09 Dec - 05:35:22 10° WSW 05:54:38 63° S 06:11:19 10° ESE visible
09 Dec - 07:51:26 10° W 08:10:10 54° SSW 08:23:32 10° SE visible
09 Dec - 10:09:51 10° W 10:23:02 28° SW 10:32:25 10° S daylight
